This demonstration page uses our WeatherBlox Daily Observations layout. Learn more.

Left ArrowRight Arrow

39.51506, -84.39828

Hourly Observations for May 30, 2020

Temp ( °F °C ) Dew Point ( °F °C ) Humidity (%) Winds ( mph kmh ) Pressure ( in mb ) Visibility ( mi km ) Precip ( " mm )
12:15 am 00:15 Clear 58 14.3 58 14.3 100 100 Calm 30.05 1018 7 11.26538 0 0
12:35 am 00:35 Clear with Mist and Fog 57 14 57 14 100 100 Calm 30.05 1018 2.5 4.02335 0 0
12:55 am 00:55 Hazy 57 14 N/A N/A Calm 30.05 1018 4 6.43736 0 0
1:15 am 01:15 Partly Cloudy with Mist and Fog 57 14 N/A N/A Calm 30.05 1018 2.5 4.02335 0 0
1:35 am 01:35 Clear with Mist and Fog 57 14 N/A N/A Calm 30.05 1018 3.5 5.63269 0 0
1:55 am 01:55 Mostly Cloudy with Fog 57 14 N/A N/A Calm 30.05 1018 0.5 0.80467 0 0
2:15 am 02:15 Mostly Cloudy with Fog 57 14 N/A N/A Calm 30.05 1018 0.5 0.80467 0 0
2:35 am 02:35 Mostly Cloudy with Mist and Fog 55 13 N/A N/A Calm 30.06 1018 1.25 2.011675 0 0
2:55 am 02:55 Clear 55 13 N/A N/A Calm 30.06 1018 10 16.0934 0 0
3:15 am 03:15 Clear 55 13 N/A N/A Calm 30.06 1018 10 16.0934 0 0
3:35 am 03:35 Clear 55 13 N/A N/A Calm 30.06 1018 10 16.0934 0 0
3:55 am 03:55 Clear 55 13 N/A N/A Calm 30.06 1018 10 16.0934 0 0
4:15 am 04:15 Clear 54 12.3 54 12.1 99 99 Calm 30.06 1018 7 11.26538 0 0
4:35 am 04:35 Clear 55 13 N/A N/A NNE 5 7 30.07 1018 10 16.0934 0 0
4:55 am 04:55 Clear 58 14.2 57 13.8 97 97 NNE 3 6 30.07 1018 10 16.0934 0 0
5:15 am 05:15 Clear 58 14.4 56 13.6 95 95 NNE 3 6 30.07 1018 10 16.0934 0 0
5:35 am 05:35 Clear 58 14.2 56 13.1 93 93 NNE 5 7 30.08 1019 10 16.0934 0 0
5:55 am 05:55 Clear 57 14.1 55 13 93 93 NNE 3 6 30.08 1019 10 16.0934 0 0
6:15 am 06:15 Sunny 57 14 55 12.6 91 91 Calm 30.09 1019 10 16.0934 0 0
6:35 am 06:35 Sunny 57 13.9 55 12.5 91 91 NE 3 6 30.1 1019 10 16.0934 0 0
6:55 am 06:55 Sunny 58 14.2 55 12.6 90 90 NNE 5 7 30.1 1019 10 16.0934 0 0
7:15 am 07:15 Sunny 58 14.5 54 12.4 87 87 NNE 5 7 30.12 1020 10 16.0934 0 0
7:35 am 07:35 Sunny 59 15 54 12.2 83 83 NNE 7 11 30.12 1020 10 16.0934 0 0
7:55 am 07:55 Sunny 60 15.4 54 12.2 81 81 NE 6 9 30.13 1020 10 16.0934 0 0
8:15 am 08:15 Sunny 60 15.8 53 11.8 77 77 NNE 9 15 30.12 1020 10 16.0934 0 0
8:35 am 08:35 Sunny 62 16.4 53 11.8 74 74 N 8 13 30.13 1020 10 16.0934 0 0
8:55 am 08:55 Sunny 62 16.7 52 11.3 71 71 NNE 10 17 30.13 1020 10 16.0934 0 0
9:15 am 09:15 Sunny 63 17.2 52 11.3 68 68 N 9 15 30.13 1020 10 16.0934 0 0
9:35 am 09:35 Sunny 64 17.8 52 11.3 66 66 NNE 8 13 30.14 1021 10 16.0934 0 0
9:55 am 09:55 Partly Cloudy 65 18.4 52 10.9 62 62 NNE 10 17 30.14 1021 10 16.0934 0 0
10:15 am 10:15 Mostly Cloudy 65 18.3 51 10.3 60 60 N 8 13 30.14 1021 10 16.0934 0 0
10:35 am 10:35 Cloudy 66 18.9 51 10.6 59 59 N 7 11 30.14 1021 10 16.0934 0 0
10:55 am 10:55 Cloudy 66 18.8 51 10.7 60 60 N 6 9 30.14 1021 10 16.0934 0 0
11:15 am 11:15 Mostly Cloudy 66 18.7 51 10.6 59 59 NNW 5 7 30.13 1020 10 16.0934 0 0
11:35 am 11:35 Partly Cloudy 68 20.1 52 11.3 57 57 NW 13 20 30.12 1020 10 16.0934 0 0
11:55 am 11:55 Partly Cloudy 68 20.1 53 11.4 57 57 N 5 7 30.12 1020 10 16.0934 0 0
12:15 pm 12:15 Mostly Cloudy 67 19.6 49 9.4 52 52 NNW 12 19 30.13 1020 10 16.0934 0 0
12:35 pm 12:35 Mostly Cloudy 69 20.4 51 10.4 53 53 NNW 12 19 30.12 1020 10 16.0934 0 0
12:55 pm 12:55 Partly Cloudy 69 20.5 51 10.6 53 53 N 5 7 30.12 1020 10 16.0934 0 0
1:15 pm 13:15 Mostly Cloudy 68 19.9 51 10.4 54 54 NW 8 13 30.12 1020 10 16.0934 0 0
1:35 pm 13:35 Mostly Cloudy 68 20.2 50 9.9 52 52 NNW 10 17 30.13 1020 10 16.0934 0 0
1:55 pm 13:55 Cloudy 69 20.4 50 10 51 51 NE 9 15 30.12 1020 10 16.0934 0 0
2:15 pm 14:15 Mostly Cloudy 70 21.3 52 10.9 52 52 N 12 19 30.12 1020 10 16.0934 0 0
2:35 pm 14:35 Mostly Cloudy 69 20.7 51 10.4 52 52 NNW 7 11 30.12 1020 10 16.0934 0 0
2:55 pm 14:55 Mostly Cloudy 70 21.3 51 10.6 51 51 Calm 30.12 1020 10 16.0934 0 0
3:15 pm 15:15 Mostly Cloudy 69 20.6 50 10 51 51 N 8 13 30.11 1020 10 16.0934 0 0
3:35 pm 15:35 Mostly Cloudy 69 20.6 50 9.8 50 50 N 9 15 30.12 1020 10 16.0934 0 0
3:55 pm 15:55 Mostly Cloudy 71 21.4 50 10.2 49 49 NNW 10 17 30.12 1020 10 16.0934 0 0
4:15 pm 16:15 Mostly Cloudy 70 21.1 49 9.6 48 48 N 12 19 30.11 1020 10 16.0934 0 0
4:35 pm 16:35 Mostly Cloudy 71 21.9 51 10.8 49 49 NNW 8 13 30.11 1020 10 16.0934 0 0
4:55 pm 16:55 Partly Cloudy 72 22.2 52 11 49 49 NW 10 17 30.11 1020 10 16.0934 0 0
5:15 pm 17:15 Partly Cloudy 72 22.1 51 10.6 48 48 NNW 9 15 30.11 1020 10 16.0934 0 0
5:35 pm 17:35 Cloudy 73 22.6 51 10.5 46 46 NNE 8 13 30.11 1020 10 16.0934 0 0
5:55 pm 17:55 Partly Cloudy 72 22.3 51 10.3 47 47 N 9 15 30.11 1020 10 16.0934 0 0
6:15 pm 18:15 Sunny 72 22.1 49 9.7 45 45 N 9 15 30.11 1020 10 16.0934 0 0
6:35 pm 18:35 Sunny 71 21.9 49 9.3 45 45 N 10 17 30.11 1020 10 16.0934 0 0
6:55 pm 18:55 Sunny 71 21.6 48 9.1 45 45 N 13 20 30.11 1020 10 16.0934 0 0
7:15 pm 19:15 Sunny 70 21.3 49 9.2 46 46 NNW 10 17 30.11 1020 10 16.0934 0 0
7:35 pm 19:35 Sunny 70 20.9 48 8.7 46 46 N 7 11 30.11 1020 10 16.0934 0 0
7:55 pm 19:55 Sunny 69 20.4 47 8.6 47 47 N 6 9 30.12 1020 10 16.0934 0 0
8:15 pm 20:15 Sunny 67 19.7 47 8.6 49 49 N 6 9 30.13 1020 10 16.0934 0 0
8:35 pm 20:35 Sunny 66 18.8 48 8.8 52 52 N 5 7 30.13 1020 10 16.0934 0 0
8:55 pm 20:55 Sunny 64 18 49 9.3 57 57 NNW 3 6 30.14 1021 10 16.0934 0 0
9:15 pm 21:15 Clear 63 17.3 49 9.4 60 60 N 3 6 30.14 1021 10 16.0934 0 0
9:35 pm 21:35 Clear 62 16.5 51 10.6 68 68 N 3 6 30.15 1021 10 16.0934 0 0
9:55 pm 21:55 Clear 60 15.8 52 11 73 73 N 3 6 30.16 1021 10 16.0934 0 0
10:15 pm 22:15 Clear 60 15.6 51 10.5 72 72 N 5 7 30.17 1022 10 16.0934 0 0
10:35 pm 22:35 Clear 58 14.4 51 10.6 78 78 Calm 30.18 1022 10 16.0934 0 0
10:55 pm 22:55 Clear 57 13.9 52 11.3 84 84 Calm 30.19 1022 10 16.0934 0 0
11:15 pm 23:15 Clear 56 13.6 51 10.8 83 83 Calm 30.19 1022 10 16.0934 0 0
11:35 pm 23:35 Clear 55 12.8 52 11.1 90 90 Calm 30.19 1022 10 16.0934 0 0
11:55 pm 23:55 Clear 55 12.7 51 10.6 87 87 Calm 30.19 1022 10 16.0934 0 0

Powered by AerisWeather